Hourly Data Report for June 06, 2020

BORDEN AWOS
ONTARIO
Current Station Operator: DND

44°16'20.000" N
79°54'42.000" W
222.50 m
611B002
71534
YBN

Download Data

Hourly Data (June 2020)
Hourly Data Report for June 6, 2020
TIME
LST
Temp Definition
°C
Dew Point Definition
°C
Rel Hum Definition
%
Precip. Amount Definition
mm

Wind Dir Definition
10's deg

Wind Spd Definition
km/h
Visibility Definition
km
Stn Press Definition
kPa
Hmdx Definition


Wind Chill Definition


Weather Definition


00:00 14.3 13.5 95   24 6 14.5 98.36     LegendNANA
01:00 12.9 11.0 88     0 14.5 98.36     LegendNANA
02:00 11.6 10.7 94     0 14.5 98.35     LegendNANA
03:00 11.8 10.7 93   36 4 14.5 98.37     LegendNANA
04:00 9.5 9.5 100     0 14.5 98.43     LegendNANA
05:00 8.1 7.9 99   14 4 14.5 98.48     LegendNANA
06:00 12.3 11.5 95     0 14.5 98.54     LegendNANA
07:00 16.2 12.0 76   27 4 14.5 98.59     LegendNANA
08:00 20.0 11.9 60   32 9 14.5 98.62     LegendNANA
09:00 21.6 10.1 48   31 15 14.5 98.62     LegendNANA
10:00 22.4 9.8 45   34 19 14.5 98.62     LegendNANA
11:00 22.3 9.2 43   31 22 14.5 98.67     LegendNANA
12:00 21.9 9.0 44   34 20 14.5 98.67     LegendNANA
13:00 21.9 8.1 41   34 26 14.5 98.67     LegendNANA
14:00 22.2 9.3 44   34 24 14.5 98.68     LegendNANA
15:00 19.9 9.8 52   33 26 14.5 98.73     LegendNANA
16:00 19.9 10.5 55   35 28 14.5 98.72     LegendNANA
17:00 19.2 10.0 55   34 24 14.5 98.77     LegendNANA
18:00 19.0 9.9 56   32 13 14.5 98.80     LegendNANA
19:00 17.5 9.7 60   33 17 14.5 98.85     LegendNANA
20:00 15.8 9.7 67   30 13 14.5 98.88     LegendNANA
21:00 14.2 9.1 71   34 11 14.5 98.94     LegendNANA
22:00 12.2 9.3 82   31 4 14.5 99.00     LegendNANA
23:00 11.7 9.4 86   34 6 14.5 99.02     LegendNANA

Notes on Data Quality.

Legend

  • E = Estimated
  • M = Missing
  • NA = Not Available*
  • [empty] = Indicates an unobserved value
Date modified: